Gastonia, NC

1:42 PM EDT on October 19, 2017 (GMT -0400)
Gastonia Municipal

Weather History for KAKH - January, 2013

Change the Weather History Date:

Sunday, January 6, 2013

  Actual Average (KCLT) Record (KCLT)
Temperature  
Mean Temperature 46 °F -  
Max Temperature 54 °F 48 °F 73 °F (1950)
Min Temperature 37 °F 32 °F 5 °F (1884)
Degree Days  
Heating Degree Days 18    
Moisture  
Dew Point 37 °F    
Average Humidity 74    
Maximum Humidity 89    
Minimum Humidity 59    
Precipitation  
Precipitation 0.01 in - - ()
Sea Level Pressure  
Sea Level Pressure 30.15 in    
Wind  
Wind Speed 1 mph (South)    
Max Wind Speed 9 mph    
Max Gust Speed 16 mph    
Visibility 10 miles    
Events Rain    
Averages and records for this station are not official NWS values.
T = Trace of Precipitation, MM = Missing Value Source: NWS Daily Summary

Daily Weather History Graph

Daily Weather History Graph

Search for Another Location

Airport or City:

Trip Planner

Search our weather history database for the weather conditions in past years. The results will help you decide how hot, cold, wet, or windy it might be!

Date:

Astronomy

Jan. 06, 2013 Rise Set
Actual Time 7:33 AM EST 5:27 PM EST
Civil Twilight 7:05 AM EST 5:55 PM EST
Nautical Twilight 6:34 AM EST 6:27 PM EST
Astronomical Twilight 6:03 AM EST 6:57 PM EST
Moon 1:51 AM EST (1/6) 12:50 PM EST (1/6)
Length of Visible Light 10h 50m
Length of Day
9h 54m
Waning Crescent, 33% of the Moon is Illuminated
Jan 6
Waning Crescent
Jan 11
New
Jan 18
First Quarter
Jan 26
Full
Feb 3
Last Quarter

Hourly Weather History & Observations

Time (EST) Temp. Windchill Dew Point Humidity Pressure Visibility Wind Dir Wind Speed Gust Speed Precip Events Conditions
12:54 AM 41.0 °F - 36.0 °F 82% 30.22 in 10.0 mi Calm Calm - 0.00 in Rain Light Rain
1:54 AM 39.9 °F - 36.0 °F 86% 30.24 in 10.0 mi Calm Calm - 0.01 in Rain Light Rain
2:54 AM 41.0 °F - 36.0 °F 82% 30.23 in 10.0 mi Calm Calm - 0.00 in   Overcast
3:54 AM 41.0 °F - 36.0 °F 82% 30.20 in 10.0 mi Calm Calm - 0.00 in   Overcast
4:54 AM 41.0 °F - 35.1 °F 79% 30.17 in 10.0 mi Calm Calm - N/A   Overcast
5:54 AM 42.1 °F - 35.1 °F 76% 30.16 in 10.0 mi Calm Calm - N/A   Overcast
6:54 AM 42.1 °F - 35.1 °F 76% 30.17 in 10.0 mi Calm Calm - N/A   Overcast
7:54 AM 41.0 °F - 36.0 °F 82% 30.19 in 10.0 mi Calm Calm - N/A   Overcast
8:54 AM 43.0 °F - 36.0 °F 76% 30.19 in 10.0 mi Calm Calm - N/A   Overcast
9:54 AM 44.1 °F 40.8 °F 35.1 °F 71% 30.19 in 10.0 mi Variable 5.8 mph - 0.00 in   Mostly Cloudy
10:54 AM 46.9 °F - 37.0 °F 68% 30.18 in 10.0 mi Variable 3.5 mph - N/A   Mostly Cloudy
11:54 AM 50.0 °F - 37.9 °F 63% 30.14 in 10.0 mi Calm Calm - N/A   Mostly Cloudy
12:54 PM 52.0 °F - 39.0 °F 61% 30.10 in 10.0 mi Variable 5.8 mph - N/A   Clear
1:54 PM 51.1 °F - 39.9 °F 66% 30.08 in 10.0 mi South 5.8 mph - N/A   Clear
2:54 PM 52.0 °F - 39.9 °F 63% 30.06 in 10.0 mi South 5.8 mph - N/A   Clear
3:54 PM 54.0 °F - 39.9 °F 59% 30.05 in 10.0 mi Variable 4.6 mph - N/A   Clear
4:54 PM 51.1 °F - 39.9 °F 66% 30.07 in 10.0 mi Variable 4.6 mph - N/A   Clear
5:54 PM 46.0 °F - 39.9 °F 79% 30.08 in 10.0 mi Calm Calm - N/A   Clear
6:54 PM 43.0 °F - 39.0 °F 86% 30.10 in 10.0 mi Calm Calm - N/A   Clear
7:54 PM 42.1 °F - 39.0 °F 89% 30.12 in 10.0 mi Calm Calm - N/A   Clear
8:54 PM 48.0 °F - 35.1 °F 61% 30.14 in 10.0 mi NNW 9.2 mph 16.1 mph N/A   Overcast
10:54 PM 42.1 °F - 30.0 °F 62% 30.20 in 10.0 mi Calm Calm - N/A   Partly Cloudy
11:54 PM 37.0 °F - 30.0 °F 76% 30.22 in 10.0 mi Calm Calm - N/A   Clear